TimeCST,TemperatureF,Dew PointF,Humidity,Sea Level PressureIn,VisibilityMPH,Wind Direction,Wind SpeedMPH,Gust SpeedMPH,PrecipitationIn,Events,Conditions,WindDirDegrees,DateUTC
12:08 AM,15.8,10.4,79,29.82,10.0,WSW,27.6,34.5,N/A,,Overcast,250,2012-12-04 06:08:00
12:28 AM,15.8,10.4,79,29.83,10.0,West,21.9,31.1,N/A,,Overcast,260,2012-12-04 06:28:00
12:49 AM,15.8,10.4,79,29.84,10.0,West,21.9,31.1,N/A,,Overcast,260,2012-12-04 06:49:00
1:08 AM,15.8,10.4,79,29.85,10.0,West,18.4,23.0,N/A,,Overcast,260,2012-12-04 07:08:00
1:28 AM,14.0,8.6,79,29.86,10.0,West,20.7,29.9,N/A,,Overcast,260,2012-12-04 07:28:00
1:49 AM,14.0,6.8,73,29.87,10.0,West,17.3,25.3,N/A,,Mostly Cloudy,260,2012-12-04 07:49:00
2:09 AM,12.2,6.8,79,29.89,10.0,West,15.0,23.0,N/A,,Mostly Cloudy,260,2012-12-04 08:09:00
2:28 AM,12.2,6.8,79,29.90,10.0,West,20.7,26.5,N/A,,Mostly Cloudy,260,2012-12-04 08:28:00
2:49 AM,12.2,6.8,79,29.91,10.0,West,17.3,26.5,N/A,,Scattered Clouds,260,2012-12-04 08:49:00
3:08 AM,12.2,6.8,79,29.93,10.0,West,17.3,25.3,N/A,,Scattered Clouds,260,2012-12-04 09:08:00
3:28 AM,10.4,6.8,85,29.93,10.0,West,20.7,26.5,N/A,,Scattered Clouds,260,2012-12-04 09:28:00
3:49 AM,10.4,5.0,79,29.93,10.0,West,19.6,27.6,N/A,,Clear,270,2012-12-04 09:49:00
4:08 AM,10.4,5.0,79,29.94,10.0,West,20.7,26.5,N/A,,Clear,260,2012-12-04 10:08:00
4:28 AM,10.4,5.0,79,29.95,10.0,West,18.4,24.2,N/A,,Clear,260,2012-12-04 10:28:00
4:49 AM,10.4,5.0,79,29.96,10.0,West,17.3,25.3,N/A,,Clear,270,2012-12-04 10:49:00
5:08 AM,10.4,5.0,79,29.97,10.0,West,20.7,25.3,N/A,,Clear,260,2012-12-04 11:08:00
5:28 AM,10.4,3.2,73,29.98,10.0,West,17.3,25.3,N/A,,Clear,260,2012-12-04 11:28:00
5:49 AM,10.4,3.2,73,29.99,10.0,West,17.3,24.2,N/A,,Clear,260,2012-12-04 11:49:00
6:08 AM,10.4,3.2,73,30.00,10.0,West,17.3,26.5,N/A,,Clear,260,2012-12-04 12:08:00
6:28 AM,8.6,3.2,79,30.01,10.0,West,17.3,25.3,N/A,,Clear,270,2012-12-04 12:28:00
6:49 AM,8.6,3.2,79,30.02,10.0,West,18.4,25.3,N/A,,Clear,270,2012-12-04 12:49:00
7:08 AM,8.6,3.2,79,30.03,10.0,West,19.6,26.5,N/A,,Clear,270,2012-12-04 13:08:00
7:29 AM,8.6,3.2,79,30.05,10.0,West,17.3,24.2,N/A,,Clear,270,2012-12-04 13:29:00
7:49 AM,8.6,5.0,85,30.05,10.0,West,15.0,23.0,N/A,,Mostly Cloudy,270,2012-12-04 13:49:00
8:08 AM,8.6,5.0,85,30.06,10.0,West,17.3,23.0,N/A,,Mostly Cloudy,270,2012-12-04 14:08:00
8:28 AM,10.4,5.0,79,30.07,10.0,West,17.3,21.9,N/A,,Scattered Clouds,280,2012-12-04 14:28:00
8:49 AM,10.4,6.8,85,30.08,10.0,West,15.0,21.9,N/A,,Mostly Cloudy,280,2012-12-04 14:49:00
9:08 AM,10.4,6.8,85,30.09,10.0,West,11.5,20.7,N/A,,Overcast,280,2012-12-04 15:08:00
9:48 AM,12.2,6.8,79,30.12,10.0,West,15.0,18.4,N/A,,Overcast,280,2012-12-04 15:48:00
10:08 AM,12.2,8.6,85,30.14,10.0,West,13.8,19.6,N/A,Snow,Light Snow,270,2012-12-04 16:08:00
10:29 AM,14.0,8.6,79,30.14,7.0,West,12.7,18.4,N/A,Snow,Light Snow,270,2012-12-04 16:29:00
10:48 AM,14.0,8.6,79,30.15,10.0,West,13.8,21.9,N/A,Snow,Light Snow,270,2012-12-04 16:48:00
11:08 AM,14.0,8.6,79,30.16,10.0,West,13.8,20.7,N/A,,Overcast,280,2012-12-04 17:08:00
11:29 AM,14.0,8.6,79,30.17,10.0,West,13.8,17.3,N/A,Snow,Light Snow,270,2012-12-04 17:29:00
11:48 AM,17.6,10.4,73,30.17,10.0,West,13.8,19.6,N/A,,Overcast,280,2012-12-04 17:48:00
12:09 PM,17.6,10.4,73,30.18,10.0,West,15.0,19.6,N/A,,Mostly Cloudy,280,2012-12-04 18:09:00
12:29 PM,17.6,10.4,73,30.18,10.0,West,13.8,19.6,N/A,,Mostly Cloudy,280,2012-12-04 18:29:00
12:48 PM,17.6,10.4,73,30.19,10.0,West,12.7,18.4,N/A,,Scattered Clouds,280,2012-12-04 18:48:00
1:09 PM,17.6,10.4,73,30.20,10.0,West,11.5,-,N/A,,Clear,270,2012-12-04 19:09:00
1:29 PM,17.6,10.4,73,30.20,10.0,West,15.0,19.6,N/A,,Scattered Clouds,270,2012-12-04 19:29:00
1:48 PM,17.6,10.4,73,30.21,10.0,West,10.4,17.3,N/A,,Clear,270,2012-12-04 19:48:00
2:09 PM,19.4,10.4,68,30.22,10.0,West,9.2,16.1,N/A,,Clear,280,2012-12-04 20:09:00
2:28 PM,19.4,10.4,68,30.18,10.0,West,10.4,-,N/A,,Clear,280,2012-12-04 20:28:00
2:48 PM,19.4,10.4,68,30.22,10.0,WNW,8.1,-,N/A,,Clear,290,2012-12-04 20:48:00
3:09 PM,19.4,10.4,68,30.23,10.0,West,5.8,-,N/A,,Clear,270,2012-12-04 21:09:00
3:28 PM,19.4,10.4,68,30.24,10.0,West,8.1,-,N/A,,Clear,280,2012-12-04 21:28:00
3:48 PM,19.4,10.4,68,30.25,10.0,WNW,6.9,-,N/A,,Clear,300,2012-12-04 21:48:00
4:09 PM,17.6,10.4,73,30.27,10.0,West,6.9,-,N/A,,Clear,280,2012-12-04 22:09:00
4:28 PM,17.6,10.4,73,30.28,10.0,WNW,8.1,-,N/A,,Clear,290,2012-12-04 22:28:00
4:48 PM,17.6,10.4,73,30.28,10.0,WNW,5.8,-,N/A,,Clear,300,2012-12-04 22:48:00
5:09 PM,15.8,10.4,79,30.28,10.0,NW,3.5,-,N/A,,Clear,310,2012-12-04 23:09:00
5:28 PM,15.8,10.4,79,30.30,10.0,WNW,5.8,-,N/A,,Clear,300,2012-12-04 23:28:00
5:48 PM,15.8,10.4,79,30.31,10.0,WNW,5.8,-,N/A,,Clear,300,2012-12-04 23:48:00
6:09 PM,15.8,10.4,79,30.31,10.0,WNW,5.8,-,N/A,,Clear,300,2012-12-05 00:09:00
6:28 PM,15.8,10.4,79,30.32,10.0,WNW,4.6,-,N/A,,Clear,300,2012-12-05 00:28:00
6:48 PM,14.0,10.4,86,30.34,10.0,NW,4.6,-,N/A,,Clear,310,2012-12-05 00:48:00
7:09 PM,14.0,10.4,86,30.34,10.0,NNW,5.8,-,N/A,,Mostly Cloudy,330,2012-12-05 01:09:00
7:28 PM,14.0,10.4,86,30.33,10.0,NNW,4.6,-,N/A,,Mostly Cloudy,330,2012-12-05 01:28:00
7:48 PM,12.2,8.6,85,30.34,10.0,NW,3.5,-,N/A,,Scattered Clouds,320,2012-12-05 01:48:00
8:09 PM,12.2,8.6,85,30.33,10.0,Calm,Calm,-,N/A,,Clear,0,2012-12-05 02:09:00
8:28 PM,10.4,8.6,92,30.32,10.0,Calm,Calm,-,N/A,,Clear,0,2012-12-05 02:28:00
8:48 PM,10.4,6.8,85,30.32,10.0,Calm,Calm,-,N/A,,Clear,0,2012-12-05 02:48:00
9:09 PM,8.6,6.8,92,30.32,10.0,Calm,Calm,-,N/A,,Mostly Cloudy,0,2012-12-05 03:09:00
9:28 PM,8.6,6.8,92,30.33,10.0,Calm,Calm,-,N/A,,Mostly Cloudy,0,2012-12-05 03:28:00
9:49 PM,6.8,5.0,92,30.34,10.0,Calm,Calm,-,N/A,,Scattered Clouds,0,2012-12-05 03:49:00
10:08 PM,6.8,5.0,92,30.34,10.0,Calm,Calm,-,N/A,,Scattered Clouds,0,2012-12-05 04:08:00
10:28 PM,8.6,6.8,92,30.36,10.0,Calm,Calm,-,N/A,,Mostly Cloudy,0,2012-12-05 04:28:00
10:49 PM,8.6,6.8,92,30.36,10.0,Calm,Calm,-,N/A,,Mostly Cloudy,0,2012-12-05 04:49:00
11:08 PM,8.6,6.8,92,30.36,10.0,Calm,Calm,-,N/A,,Clear,0,2012-12-05 05:08:00
11:28 PM,6.8,3.2,85,30.37,10.0,Calm,Calm,-,N/A,,Clear,0,2012-12-05 05:28:00
11:49 PM,5.0,3.2,92,30.37,10.0,Calm,Calm,-,N/A,,Clear,0,2012-12-05 05:49:00